Location: *
(51.0333°S, 178.4667°E)
Time: 13:00:01
(UTC+00:00)

STARLINK-49 - Pass Details

Date: 15 November 2019
Orbit: 529 x 530 km, 53.0° (Epoch: 13 December)

Event Time Altitude Azimuth Distance (km) Brightness Sun altitude
Rises 11:18:06 0° 251° (WSW) 2,694 7.5 -20.1°
Reaches altitude 10° 11:20:19 10° 253° (WSW) 1,801 6.5 -20.2°
Maximum altitude 11:24:24 75° 337° (NNW) 563 3.4 -20.3°
Enters shadow 11:25:02 60° 38° (NE) 621 3.5 -20.3°
